Regional Weather Roundup
Issued by NWS Sioux Falls, SD

Home | Current Version | Previous Version | Graphics & Text | Print | Product List | Glossary On
Versions: 1 2 3 4 5 6 7 8 9 10 11 12 13 14 15 16 17 18 19 20 21 22 23 24 25 26 27 28 29 30 31 32 33 34 35 36 37 38 39 40 41 42 43 44 45 46 47 48 49 50
000
ASUS43 KFSD 210410
RWRFSD

WEATHER ROUNDUP FOR SE SOUTH DAKOTA/SW MINNESOTA/NW IOWA
NATIONAL WEATHER SERVICE SIOUX FALLS SD
1100 PM CDT SUN AUG 20 2017

NOTE: "FAIR" INDICATES FEW OR NO CLOUDS BELOW 12,000 FEET WITH NO
SIGNIFICANT WEATHER AND OR OBSTRUCTIONS TO VISIBILITY.


SDZ038>040-050-052>070-210500-
SOUTHEAST SOUTH DAKOTA

CITY           SKY/WX    TMP DP  RH WIND       PRES   REMARKS
CHAMBERLAIN    CLOUDY    69  61  76 NE5       30.02R
HURON          CLEAR     60  57  89 NE7       30.02S
MADISON        LGT RAIN  63  63 100 CALM      30.04S
MITCHELL       CLEAR     68  58  70 E5        30.00S
SIOUX FALLS    MOCLDY    69  65  86 NE6       30.02R
WINNER         CLOUDY    70  62  76 NE6       30.02R
YANKTON        PTCLDY    71  67  87 NE9       30.00R
$$

MNZ071-072-080-081-089-090-097-098-210500-
SOUTHWEST MINNESOTA

CITY           SKY/WX    TMP DP  RH WIND       PRES   REMARKS
FAIRMONT       CLEAR     70  67  90 N5        30.04R
JACKSON        PTCLDY    66  63  88 CALM      30.05S
LUVERNE        MOCLDY    66  61  82 E5        30.04R
MARSHALL       MOCLDY    62  60  93 NW5       30.05R
MONTEVIDEO     CLEAR     61  55  82 N3        30.04S
PIPESTONE      PTCLDY    66  61  82 E6        30.04S
REDWOOD FALLS  PTCLDY    66  62  87 N8        30.03R
TRACY          MOCLDY    64  63  99 N3        30.05R
WINDOM         CLEAR     66  64  94 CALM      30.04S
WORTHINGTON    MOCLDY    66  65  96 NE5       30.05S
$$

IAZ001>003-012>014-020>022-031-032-NEZ013-014-SDZ071-210500-
NORTHWEST IOWA

CITY           SKY/WX    TMP DP  RH WIND       PRES   REMARKS
CHEROKEE       CLOUDY    74  71  89 CALM      30.01R
DENISON        CLOUDY    73  68  83 E8        29.99F
ESTHERVILLE    PTCLDY    69  69 100 N7        30.03R
ORANGE CITY    MOCLDY    75  72  88 E8        30.02R
SHELDON        CLOUDY    70  66  88 NE9       30.01R
SIOUX CITY     PTCLDY    74  69  85 E5        29.98S
SPENCER        CLEAR     72  69  90 NE9       30.02S
STORM LAKE     CLOUDY    73  68  83 CALM      30.02S
$$

ABBREVIATIONS USED IN REMARKS
   TC - TEMPERATURE IN CELSIUS
  WCI - WIND CHILL INDEX
   HX - HEAT INDEX
  VSB - VISIBILITY




USA.gov is the U.S. government's official web portal to all federal, state and local government web resources and services.